Location: El Manguito
(10.2358°N, 67.3634°W)
Time: 16:03:26
(UTC+00:00)

Cosmos 2016 Rocket - Pass Details

Date: 10 September 2024
Orbit: 947 x 999 km, 83.0° (Epoch: 10 October)

Event Time Altitude Azimuth Distance (km) Brightness Sun altitude
Rises 22:42:01 0° 180° (S) 3,636 6.9 -3.1°
Reaches altitude 10° 22:44:32 10° 179° (S) 2,683 6.3 -3.7°
Maximum altitude 22:50:39 78° 93° (E) 972 3.9 -5.2°
Drops below altitude 10° 22:56:43 10° 7° (N) 2,662 6.3 -6.7°
Sets 22:59:12 0° 6° (N) 3,605 7.0 -7.3°
